| time (UTC) | temp F | wind direction | speed MPH | gust MPH | rain 1hr in | rain 24hr in | rain mn in | humidity % | barometer mb |
| 20260509131730 | 58 | 267 | 3.0 | 3.0 | 0.00 | 0.00 | 0.00 | 82 | |
| 20260509131227 | 57 | 225 | 3.0 | 7.0 | 0.00 | 0.00 | 0.00 | 85 | |
| 20260509130723 | 56 | 249 | 0.0 | 3.0 | 0.00 | 0.00 | 0.00 | 85 | |
| 20260509130219 | 57 | 261 | 3.0 | 5.0 | 0.00 | 0.00 | 0.00 | 84 | |
| 20260509125716 | 58 | 272 | 1.0 | 2.0 | 0.00 | 0.00 | 0.00 | 85 | |
| 20260509125213 | 56 | 232 | 2.0 | 2.0 | 0.00 | 0.00 | 0.00 | 88 | |
| 20260509124709 | 55 | 237 | 1.0 | 5.0 | 0.00 | 0.00 | 0.00 | 90 | |
| 20260509124206 | 55 | 269 | 3.0 | 5.0 | 0.00 | 0.00 | 0.00 | 92 | |
| 20260509123704 | 54 | 300 | 0.0 | 2.0 | 0.00 | 0.00 | 0.00 | 94 | |
| 20260509123201 | 54 | 242 | 0.0 | 0.0 | 0.00 | 0.00 | 0.00 | 95 | |
| 20260509122656 | 53 | 258 | 0.0 | 2.0 | 0.00 | 0.00 | 0.00 | 95 | |
| 20260509122154 | 53 | 270 | 1.0 | 1.0 | 0.00 | 0.00 | 0.00 | 95 | |
| 20260509121650 | 53 | 279 | 0.0 | 0.0 | 0.00 | 0.00 | 0.00 | 96 | |
| 20260509121148 | 53 | 182 | 0.0 | 1.0 | 0.00 | 0.00 | 0.00 | 96 | |
| 20260509120646 | 52 | 209 | 0.0 | 3.0 | 0.00 | 0.00 | 0.00 | 96 | |
| 20260509120144 | 52 | 268 | 1.0 | 2.0 | 0.00 | 0.00 | 0.00 | 97 | |
| 20260509115641 | 52 | 249 | 1.0 | 2.0 | 0.00 | 0.00 | 0.00 | 97 | |
| 20260509115138 | 52 | 257 | 1.0 | 1.0 | 0.00 | 0.00 | 0.00 | 97 | |
| 20260509114637 | 52 | 257 | 0.0 | 1.0 | 0.00 | 0.00 | 0.00 | 97 | |
| 20260509114135 | 52 | 226 | 0.0 | 2.0 | 0.00 | 0.00 | 0.00 | 97 | |
| 20260509113633 | 52 | 254 | 0.0 | 1.0 | 0.00 | 0.00 | 0.00 | 97 | |
| 20260509113130 | 51 | 294 | 1.0 | 3.0 | 0.00 | 0.00 | 0.00 | 97 | |
| 20260509112627 | 51 | 240 | 0.0 | 1.0 | 0.00 | 0.00 | 0.00 | 98 | |
| 20260509112124 | 51 | 232 | 0.0 | 1.0 | 0.00 | 0.00 | 0.00 | 98 | |
| 20260509111621 | 51 | 256 | 1.0 | 2.0 | 0.00 | 0.00 | 0.00 | 98 | |
| 20260509111118 | 51 | 252 | 0.0 | 0.0 | 0.00 | 0.00 | 0.00 | 98 | |
| 20260509110615 | 51 | 240 | 0.0 | 2.0 | 0.00 | 0.00 | 0.00 | 98 | |
| 20260509110112 | 51 | 186 | 1.0 | 3.0 | 0.00 | 0.00 | 0.00 | 98 | |
| 20260509105610 | 51 | 235 | 0.0 | 1.0 | 0.00 | 0.00 | 0.00 | 98 | |
| 20260509105107 | 51 | 237 | 0.0 | 2.0 | 0.00 | 0.00 | 0.00 | 98 | |
| 20260509104604 | 51 | 124 | 0.0 | 1.0 | 0.00 | 0.00 | 0.00 | 98 | |
| 20260509104101 | 51 | 254 | 0.0 | 1.0 | 0.00 | 0.00 | 0.00 | 98 | |
| 20260509103559 | 51 | 240 | 0.0 | 1.0 | 0.00 | 0.00 | 0.00 | 98 | |
| 20260509103057 | 51 | 252 | 0.0 | 2.0 | 0.00 | 0.00 | 0.00 | 97 | |
| 20260509102554 | 51 | 212 | 1.0 | 1.0 | 0.00 | 0.00 | 0.00 | 97 | |
| 20260509102051 | 51 | 261 | 0.0 | 1.0 | 0.00 | 0.00 | 0.00 | 97 | |
| 20260509101547 | 51 | 264 | 1.0 | 1.0 | 0.00 | 0.00 | 0.00 | 97 | |
| 20260509101044 | 51 | 238 | 0.0 | 1.0 | 0.00 | 0.00 | 0.00 | 97 | |
| 20260509100541 | 51 | 302 | 2.0 | 3.0 | 0.00 | 0.00 | 0.00 | 97 | |
| 20260509100038 | 51 | 249 | 0.0 | 0.0 | 0.00 | 0.00 | 0.00 | 97 | |
| 20260509095535 | 51 | 245 | 0.0 | 1.0 | 0.00 | 0.00 | 0.00 | 97 | |
| 20260509095032 | 51 | 227 | 0.0 | 2.0 | 0.00 | 0.00 | 0.00 | 97 | |
| 20260509094528 | 51 | 240 | 0.0 | 1.0 | 0.00 | 0.00 | 0.00 | 97 | |
| 20260509094026 | 50 | 222 | 3.0 | 3.0 | 0.00 | 0.00 | 0.00 | 97 | |
| 20260509093524 | 50 | 251 | 0.0 | 1.0 | 0.00 | 0.00 | 0.00 | 97 | |
| 20260509093021 | 49 | 247 | 0.0 | 0.0 | 0.00 | 0.00 | 0.00 | 97 | |
| 20260509092519 | 49 | 247 | 0.0 | 0.0 | 0.00 | 0.00 | 0.00 | 97 | |
| 20260509092018 | 49 | 254 | 0.0 | 0.0 | 0.00 | 0.00 | 0.00 | 97 | |
| 20260509091514 | 49 | 237 | 0.0 | 0.0 | 0.00 | 0.00 | 0.00 | 96 | |
| 20260509091011 | 50 | 234 | 0.0 | 0.0 | 0.00 | 0.00 | 0.00 | 96 | |
| 20260509090508 | 49 | 233 | 0.0 | 0.0 | 0.00 | 0.00 | 0.00 | 96 | |
| 20260509090006 | 49 | 241 | 0.0 | 0.0 | 0.00 | 0.00 | 0.00 | 96 | |
| 20260509085503 | 49 | 241 | 0.0 | 0.0 | 0.00 | 0.00 | 0.00 | 96 | |
| 20260509084959 | 49 | 249 | 0.0 | 0.0 | 0.00 | 0.00 | 0.00 | 96 | |
| 20260509084456 | 49 | 246 | 0.0 | 0.0 | 0.00 | 0.00 | 0.00 | 96 | |
| 20260509083953 | 49 | 239 | 0.0 | 0.0 | 0.00 | 0.00 | 0.00 | 96 | |
| 20260509083450 | 49 | 238 | 0.0 | 0.0 | 0.00 | 0.00 | 0.00 | 95 | |
| 20260509082947 | 49 | 234 | 0.0 | 0.0 | 0.00 | 0.00 | 0.00 | 96 | |
| 20260509082444 | 49 | 235 | 0.0 | 0.0 | 0.00 | 0.00 | 0.00 | 95 | |
| 20260509081941 | 49 | 238 | 0.0 | 0.0 | 0.00 | 0.00 | 0.00 | 95 | |
| 20260509081439 | 50 | 235 | 0.0 | 0.0 | 0.00 | 0.00 | 0.00 | 95 | |
| 20260509080935 | 50 | 238 | 0.0 | 0.0 | 0.00 | 0.00 | 0.00 | 95 | |
| 20260509080433 | 50 | 248 | 0.0 | 0.0 | 0.00 | 0.00 | 0.00 | 95 | |
| 20260509075931 | 50 | 242 | 0.0 | 0.0 | 0.00 | 0.00 | 0.00 | 94 | |
| 20260509075428 | 49 | 245 | 0.0 | 0.0 | 0.00 | 0.00 | 0.00 | 94 | |
| 20260509074926 | 50 | 247 | 0.0 | 0.0 | 0.00 | 0.00 | 0.00 | 94 | |
| 20260509074423 | 50 | 246 | 0.0 | 0.0 | 0.00 | 0.00 | 0.00 | 94 | |
| 20260509073919 | 50 | 238 | 0.0 | 1.0 | 0.00 | 0.00 | 0.00 | 94 | |
| 20260509073416 | 50 | 237 | 0.0 | 0.0 | 0.00 | 0.00 | 0.00 | 93 | |
| 20260509072912 | 49 | 247 | 0.0 | 0.0 | 0.00 | 0.00 | 0.00 | 93 | |
| 20260509072409 | 50 | 241 | 0.0 | 0.0 | 0.00 | 0.00 | 0.00 | 93 | |
| 20260509071905 | 50 | 241 | 0.0 | 0.0 | 0.00 | 0.00 | 0.00 | 92 | |
| 20260509071403 | 50 | 242 | 0.0 | 0.0 | 0.00 | 0.00 | 0.00 | 92 | |
| 20260509070900 | 50 | 238 | 0.0 | 0.0 | 0.00 | 0.00 | 0.00 | 92 | |
| 20260509070356 | 50 | 244 | 0.0 | 0.0 | 0.00 | 0.00 | 0.00 | 91 | |
| 20260509065852 | 50 | 240 | 0.0 | 0.0 | 0.00 | 0.00 | 0.00 | 91 | |
| 20260509065349 | 50 | 238 | 0.0 | 0.0 | 0.00 | 0.00 | 0.00 | 91 | |
| 20260509064845 | 50 | 232 | 0.0 | 1.0 | 0.00 | 0.00 | 0.00 | 91 | |
| 20260509064343 | 50 | 263 | 0.0 | 0.0 | 0.00 | 0.00 | 0.00 | 91 | |
| 20260509063840 | 50 | 230 | 0.0 | 1.0 | 0.00 | 0.00 | 0.00 | 91 | |
| 20260509063336 | 50 | 232 | 0.0 | 0.0 | 0.00 | 0.00 | 0.00 | 91 | |
| 20260509062833 | 50 | 237 | 0.0 | 0.0 | 0.00 | 0.00 | 0.00 | 91 | |
| 20260509062330 | 50 | 237 | 0.0 | 0.0 | 0.00 | 0.00 | 0.00 | 91 | |
| 20260509061828 | 51 | 237 | 0.0 | 0.0 | 0.00 | 0.00 | 0.00 | 90 | |
| 20260509061326 | 51 | 233 | 0.0 | 0.0 | 0.00 | 0.00 | 0.00 | 90 | |
| 20260509060822 | 51 | 231 | 0.0 | 0.0 | 0.00 | 0.00 | 0.00 | 90 | |
| 20260509060319 | 51 | 237 | 0.0 | 0.0 | 0.00 | 0.00 | 0.00 | 90 | |
| 20260509055815 | 51 | 237 | 0.0 | 0.0 | 0.00 | 0.00 | 0.00 | 89 | |
| 20260509055310 | 52 | 232 | 0.0 | 0.0 | 0.00 | 0.00 | 0.00 | 89 | |
| 20260509054808 | 52 | 235 | 0.0 | 0.0 | 0.00 | 0.00 | 0.00 | 88 | |
| 20260509054304 | 52 | 242 | 0.0 | 0.0 | 0.00 | 0.00 | 0.00 | 87 | |
| 20260509053803 | 53 | 239 | 0.0 | 0.0 | 0.00 | 0.00 | 0.00 | 86 | |
| 20260509053259 | 53 | 254 | 0.0 | 0.0 | 0.00 | 0.00 | 0.00 | 86 | |
| 20260509052757 | 53 | 257 | 0.0 | 1.0 | 0.00 | 0.00 | 0.00 | 86 | |
| 20260509052255 | 53 | 228 | 0.0 | 1.0 | 0.00 | 0.00 | 0.00 | 85 | |
| 20260509051752 | 54 | 261 | 0.0 | 1.0 | 0.00 | 0.00 | 0.00 | 85 | |
| 20260509051250 | 54 | 247 | 0.0 | 0.0 | 0.00 | 0.00 | 0.00 | 84 | |
| 20260509050746 | 55 | 246 | 0.0 | 1.0 | 0.00 | 0.00 | 0.00 | 84 | |
| 20260509050243 | 55 | 264 | 0.0 | 1.0 | 0.00 | 0.00 | 0.00 | 84 | |
| 20260509045741 | 55 | 242 | 0.0 | 0.0 | 0.00 | 0.00 | 0.00 | 83 | |
| 20260509045237 | 55 | 270 | 0.0 | 1.0 | 0.00 | 0.00 | 0.00 | 83 | |
| 20260509044734 | 55 | 282 | 2.0 | 5.0 | 0.00 | 0.00 | 0.00 | 83 | |
| 20260509044232 | 55 | 276 | 1.0 | 1.0 | 0.00 | 0.00 | 0.00 | 84 | |
| 20260509043728 | 55 | 248 | 0.0 | 3.0 | 0.00 | 0.00 | 0.00 | 84 | |
| 20260509043224 | 55 | 255 | 1.0 | 1.0 | 0.00 | 0.00 | 0.00 | 84 | |
| 20260509042721 | 55 | 241 | 0.0 | 2.0 | 0.00 | 0.00 | 0.00 | 84 | |
| 20260509042217 | 55 | 259 | 1.0 | 3.0 | 0.00 | 0.00 | 0.00 | 84 | |
| 20260509041714 | 55 | 256 | 1.0 | 1.0 | 0.00 | 0.00 | 0.00 | 83 | |
| 20260509041211 | 55 | 245 | 1.0 | 2.0 | 0.00 | 0.00 | 0.00 | 83 | |
| 20260509040710 | 55 | 248 | 1.0 | 1.0 | 0.00 | 0.00 | 0.00 | 83 | |
| 20260509040206 | 55 | 279 | 2.0 | 3.0 | 0.00 | 0.00 | 0.00 | 83 | |
| 20260509035702 | 55 | 272 | 1.0 | 2.0 | 0.00 | 0.00 | 0.00 | 82 | |
| 20260509035159 | 55 | 244 | 1.0 | 5.0 | 0.00 | 0.00 | 0.00 | 82 | |
| 20260509034657 | 55 | 244 | 2.0 | 2.0 | 0.00 | 0.00 | 0.00 | 82 | |
| 20260509034154 | 55 | 291 | 1.0 | 2.0 | 0.00 | 0.00 | 0.00 | 82 | |
| 20260509033651 | 55 | 269 | 2.0 | 3.0 | 0.00 | 0.00 | 0.00 | 82 | |
| 20260509033148 | 55 | 250 | 0.0 | 1.0 | 0.00 | 0.00 | 0.00 | 81 | |
| 20260509032645 | 55 | 267 | 1.0 | 3.0 | 0.00 | 0.00 | 0.00 | 81 | |
| 20260509032142 | 56 | 249 | 0.0 | 5.0 | 0.00 | 0.00 | 0.00 | 81 | |
| 20260509031640 | 55 | 267 | 2.0 | 3.0 | 0.00 | 0.00 | 0.00 | 81 | |
| 20260509031137 | 55 | 333 | 2.0 | 3.0 | 0.00 | 0.00 | 0.00 | 81 | |
| 20260509030635 | 55 | 316 | 3.0 | 6.0 | 0.00 | 0.00 | 0.00 | 81 | |
| 20260509030132 | 55 | 243 | 0.0 | 2.0 | 0.00 | 0.00 | 0.00 | 81 | |
| 20260509025628 | 55 | 293 | 2.0 | 2.0 | 0.00 | 0.00 | 0.00 | 81 | |
| 20260509025124 | 55 | 254 | 0.0 | 1.0 | 0.00 | 0.00 | 0.00 | 80 | |
| 20260509024619 | 55 | 250 | 0.0 | 0.0 | 0.00 | 0.00 | 0.00 | 80 | |
| 20260509024115 | 55 | 238 | 0.0 | 2.0 | 0.00 | 0.00 | 0.00 | 79 | |
| 20260509023614 | 55 | 233 | 0.0 | 3.0 | 0.00 | 0.00 | 0.00 | 79 | |
| 20260509023110 | 56 | 237 | 1.0 | 2.0 | 0.00 | 0.00 | 0.00 | 78 | |
| 20260509022607 | 56 | 238 | 0.0 | 2.0 | 0.00 | 0.00 | 0.00 | 77 | |
| 20260509022105 | 56 | 230 | 0.0 | 1.0 | 0.00 | 0.00 | 0.00 | 77 | |
| 20260509021601 | 56 | 252 | 0.0 | 3.0 | 0.00 | 0.00 | 0.00 | 76 | |
| 20260509021058 | 56 | 244 | 0.0 | 5.0 | 0.00 | 0.00 | 0.00 | 76 | |
| 20260509020556 | 56 | 250 | 0.0 | 3.0 | 0.00 | 0.00 | 0.00 | 75 | |
| 20260509020053 | 57 | 252 | 1.0 | 3.0 | 0.00 | 0.00 | 0.00 | 75 | |
| 20260509015547 | 57 | 250 | 1.0 | 1.0 | 0.00 | 0.00 | 0.00 | 75 | |
| 20260509015043 | 57 | 228 | 1.0 | 1.0 | 0.00 | 0.00 | 0.00 | 74 | |
| 20260509014540 | 57 | 244 | 0.0 | 3.0 | 0.00 | 0.00 | 0.00 | 74 | |
| 20260509014036 | 57 | 296 | 0.0 | 1.0 | 0.00 | 0.00 | 0.00 | 73 | |
| 20260509013533 | 57 | 207 | 1.0 | 1.0 | 0.00 | 0.00 | 0.00 | 72 | |
| 20260509013029 | 58 | 300 | 0.0 | 1.0 | 0.00 | 0.00 | 0.00 | 72 | |
| 20260509012526 | 58 | 236 | 0.0 | 2.0 | 0.00 | 0.00 | 0.00 | 71 | |
| 20260509012022 | 58 | 256 | 0.0 | 1.0 | 0.00 | 0.00 | 0.00 | 70 | |
| 20260509011520 | 59 | 313 | 4.0 | 6.0 | 0.00 | 0.00 | 0.00 | 68 | |
| 20260509011018 | 59 | 246 | 0.0 | 2.0 | 0.00 | 0.00 | 0.00 | 67 | |
| 20260509010515 | 59 | 247 | 1.0 | 6.0 | 0.00 | 0.00 | 0.00 | 66 | |
| 20260509010011 | 59 | 263 | 1.0 | 1.0 | 0.00 | 0.00 | 0.00 | 65 | |
| 20260509005509 | 60 | 207 | 1.0 | 3.0 | 0.00 | 0.00 | 0.00 | 64 | |
| 20260509005004 | 60 | 339 | 0.0 | 3.0 | 0.00 | 0.00 | 0.00 | 62 | |
| 20260509004501 | 60 | 250 | 0.0 | 3.0 | 0.00 | 0.00 | 0.00 | 60 | |
| 20260509003958 | 60 | 232 | 0.0 | 2.0 | 0.00 | 0.00 | 0.00 | 60 | |
| 20260509003457 | 60 | 223 | 1.0 | 2.0 | 0.00 | 0.00 | 0.00 | 60 | |
| 20260509002953 | 60 | 258 | 0.0 | 1.0 | 0.00 | 0.00 | 0.00 | 59 | |
| 20260509002451 | 61 | 244 | 0.0 | 2.0 | 0.00 | 0.00 | 0.00 | 59 | |
| 20260509001948 | 61 | 135 | 0.0 | 1.0 | 0.00 | 0.00 | 0.00 | 58 | |
| 20260509001444 | 61 | 217 | 1.0 | 1.0 | 0.00 | 0.00 | 0.00 | 58 | |
| 20260509000941 | 62 | 316 | 3.0 | 5.0 | 0.00 | 0.00 | 0.00 | 58 | |
| 20260509000440 | 62 | 248 | 1.0 | 3.0 | 0.00 | 0.00 | 0.00 | 58 | |
| 20260508235935 | 62 | 190 | 1.0 | 2.0 | 0.00 | 0.00 | 0.00 | 58 | |
| 20260508235433 | 62 | 305 | 2.0 | 2.0 | 0.00 | 0.00 | 0.00 | 58 | |
| 20260508234929 | 62 | 247 | 0.0 | 1.0 | 0.00 | 0.00 | 0.00 | 58 | |
| 20260508234426 | 63 | 161 | 1.0 | 2.0 | 0.00 | 0.00 | 0.00 | 60 | |
| 20260508233924 | 62 | 234 | 0.0 | 1.0 | 0.00 | 0.00 | 0.00 | 61 | |
| 20260508233423 | 62 | 210 | 1.0 | 1.0 | 0.00 | 0.00 | 0.00 | 63 | |
| 20260508232919 | 62 | 213 | 1.0 | 2.0 | 0.00 | 0.00 | 0.00 | 63 | |
| 20260508232416 | 63 | 204 | 1.0 | 1.0 | 0.00 | 0.00 | 0.00 | 63 | |
| 20260508231914 | 63 | 107 | 1.0 | 1.0 | 0.00 | 0.00 | 0.00 | 63 | |
| 20260508231411 | 63 | 140 | 1.0 | 3.0 | 0.00 | 0.00 | 0.00 | 62 | |
| 20260508230907 | 62 | 260 | 1.0 | 2.0 | 0.00 | 0.00 | 0.00 | 64 | |
| 20260508230404 | 62 | 206 | 2.0 | 3.0 | 0.00 | 0.00 | 0.00 | 63 | |
| 20260508225901 | 62 | 245 | 0.0 | 2.0 | 0.00 | 0.00 | 0.00 | 66 | |
| 20260508225358 | 62 | 194 | 2.0 | 2.0 | 0.00 | 0.00 | 0.00 | 65 | |
| 20260508224856 | 62 | 254 | 1.0 | 2.0 | 0.00 | 0.00 | 0.00 | 64 | |
| 20260508224353 | 62 | 261 | 1.0 | 2.0 | 0.00 | 0.00 | 0.00 | 63 | |
| 20260508223850 | 62 | 241 | 1.0 | 3.0 | 0.00 | 0.00 | 0.00 | 61 | |
| 20260508223348 | 62 | 216 | 1.0 | 3.0 | 0.00 | 0.00 | 0.00 | 64 | |
| 20260508222845 | 62 | 295 | 0.0 | 2.0 | 0.00 | 0.00 | 0.00 | 65 | |
| 20260508222342 | 62 | 241 | 2.0 | 2.0 | 0.00 | 0.00 | 0.00 | 66 | |
| 20260508221839 | 62 | 211 | 1.0 | 2.0 | 0.00 | 0.00 | 0.00 | 66 | |
| 20260508221334 | 62 | 206 | 2.0 | 3.0 | 0.00 | 0.00 | 0.00 | 64 | |
| 20260508220831 | 62 | 192 | 0.0 | 3.0 | 0.00 | 0.00 | 0.00 | 64 | |
| 20260508220327 | 61 | 254 | 1.0 | 3.0 | 0.00 | 0.00 | 0.00 | 63 | |
| 20260508215824 | 62 | 222 | 2.0 | 3.0 | 0.00 | 0.00 | 0.00 | 61 | |
| 20260508215321 | 62 | 202 | 4.0 | 8.0 | 0.00 | 0.00 | 0.00 | 59 | |
| 20260508214817 | 62 | 219 | 0.0 | 3.0 | 0.00 | 0.00 | 0.00 | 60 | |
| 20260508214315 | 62 | 119 | 1.0 | 6.0 | 0.00 | 0.00 | 0.00 | 60 | |
| 20260508213811 | 62 | 190 | 3.0 | 3.0 | 0.00 | 0.00 | 0.00 | 60 | |
| 20260508213308 | 62 | 182 | 3.0 | 6.0 | 0.00 | 0.00 | 0.00 | 60 | |
| 20260508212804 | 63 | 217 | 1.0 | 2.0 | 0.00 | 0.00 | 0.00 | 59 | |
| 20260508212301 | 63 | 192 | 3.0 | 6.0 | 0.00 | 0.00 | 0.00 | 59 | |
| 20260508211756 | 63 | 258 | 2.0 | 6.0 | 0.00 | 0.00 | 0.00 | 57 | |
| 20260508211252 | 63 | 239 | 4.0 | 9.0 | 0.00 | 0.00 | 0.00 | 56 | |
| 20260508210750 | 64 | 202 | 1.0 | 3.0 | 0.00 | 0.00 | 0.00 | 54 | |
| 20260508210247 | 64 | 227 | 2.0 | 2.0 | 0.00 | 0.00 | 0.00 | 54 | |
| 20260508205744 | 65 | 254 | 1.0 | 3.0 | 0.00 | 0.00 | 0.00 | 54 | |
| 20260508205240 | 65 | 289 | 1.0 | 3.0 | 0.00 | 0.00 | 0.00 | 54 | |
| 20260508204736 | 65 | 337 | 2.0 | 5.0 | 0.00 | 0.00 | 0.00 | 54 | |
| 20260508204233 | 64 | 214 | 2.0 | 6.0 | 0.00 | 0.00 | 0.00 | 56 | |
| 20260508203729 | 63 | 227 | 3.0 | 5.0 | 0.00 | 0.00 | 0.00 | 57 | |
| 20260508203225 | 62 | 197 | 1.0 | 3.0 | 0.00 | 0.00 | 0.00 | 60 | |
| 20260508202716 | 61 | 127 | 1.0 | 5.0 | 0.00 | 0.00 | 0.00 | 61 | |
| 20260508202213 | 61 | 186 | 3.0 | 6.0 | 0.00 | 0.00 | 0.00 | 60 | |
| 20260508201710 | 63 | 244 | 2.0 | 5.0 | 0.00 | 0.00 | 0.00 | 58 | |
| 20260508201207 | 64 | 330 | 2.0 | 3.0 | 0.00 | 0.00 | 0.00 | 56 | |
| 20260508200704 | 63 | 180 | 3.0 | 5.0 | 0.00 | 0.00 | 0.00 | 56 | |
| 20260508200159 | 63 | 195 | 6.0 | 7.0 | 0.00 | 0.00 | 0.00 | 56 | |
| 20260508195656 | 64 | 230 | 1.0 | 3.0 | 0.00 | 0.00 | 0.00 | 54 | |
| 20260508195153 | 64 | 11 | 2.0 | 3.0 | 0.00 | 0.00 | 0.00 | 56 | |
| 20260508194649 | 64 | 101 | 2.0 | 6.0 | 0.00 | 0.00 | 0.00 | 55 | |
| 20260508194146 | 64 | 197 | 1.0 | 5.0 | 0.00 | 0.00 | 0.00 | 56 | |
| 20260508193643 | 63 | 156 | 1.0 | 5.0 | 0.00 | 0.00 | 0.00 | 56 | |
| 20260508193140 | 63 | 265 | 1.0 | 2.0 | 0.00 | 0.00 | 0.00 | 56 | |
| 20260508192636 | 63 | 217 | 3.0 | 5.0 | 0.00 | 0.00 | 0.00 | 53 | |
| 20260508192133 | 64 | 126 | 3.0 | 5.0 | 0.00 | 0.00 | 0.00 | 53 | |
| 20260508191625 | 63 | 176 | 2.0 | 5.0 | 0.00 | 0.00 | 0.00 | 53 | |
| 20260508191121 | 63 | 139 | 3.0 | 7.0 | 0.00 | 0.00 | 0.00 | 52 | |
| 20260508190619 | 63 | 225 | 2.0 | 3.0 | 0.00 | 0.00 | 0.00 | 51 | |
| 20260508190115 | 63 | 194 | 3.0 | 6.0 | 0.00 | 0.00 | 0.00 | 52 | |
| 20260508185612 | 65 | 154 | 2.0 | 5.0 | 0.00 | 0.00 | 0.00 | 51 | |
| 20260508185109 | 64 | 184 | 1.0 | 2.0 | 0.00 | 0.00 | 0.00 | 51 | |
| 20260508184607 | 64 | 150 | 1.0 | 2.0 | 0.00 | 0.00 | 0.00 | 51 | |
| 20260508184104 | 63 | 198 | 1.0 | 5.0 | 0.00 | 0.00 | 0.00 | 52 | |
| 20260508183600 | 63 | 58 | 2.0 | 2.0 | 0.00 | 0.00 | 0.00 | 51 | |
| 20260508183056 | 63 | 212 | 1.0 | 2.0 | 0.00 | 0.00 | 0.00 | 50 | |
| 20260508182552 | 64 | 272 | 1.0 | 3.0 | 0.00 | 0.00 | 0.00 | 51 | |
| 20260508182049 | 63 | 158 | 3.0 | 7.0 | 0.00 | 0.00 | 0.00 | 50 | |
| 20260508181544 | 63 | 68 | 1.0 | 3.0 | 0.00 | 0.00 | 0.00 | 50 | |
| 20260508181042 | 63 | 213 | 2.0 | 3.0 | 0.00 | 0.00 | 0.00 | 49 | |
| 20260508180538 | 63 | 195 | 4.0 | 6.0 | 0.00 | 0.00 | 0.00 | 48 | |
| 20260508180035 | 64 | 83 | 4.0 | 6.0 | 0.00 | 0.00 | 0.00 | 47 | |
| 20260508175532 | 64 | 175 | 2.0 | 3.0 | 0.00 | 0.00 | 0.00 | 49 | |
| 20260508175029 | 63 | 162 | 1.0 | 6.0 | 0.00 | 0.00 | 0.00 | 49 | |
| 20260508174526 | 63 | 218 | 3.0 | 6.0 | 0.00 | 0.00 | 0.00 | 48 | |
| 20260508174023 | 64 | 254 | 0.0 | 3.0 | 0.00 | 0.00 | 0.00 | 50 | |
| 20260508173520 | 64 | 285 | 2.0 | 3.0 | 0.00 | 0.00 | 0.00 | 48 | |
| 20260508173016 | 64 | 201 | 2.0 | 5.0 | 0.00 | 0.00 | 0.00 | 49 | |
| 20260508172513 | 63 | 197 | 1.0 | 3.0 | 0.00 | 0.00 | 0.00 | 46 | |
| 20260508172010 | 64 | 122 | 2.0 | 5.0 | 0.00 | 0.00 | 0.00 | 43 | |
| 20260508171506 | 64 | 341 | 4.0 | 7.0 | 0.00 | 0.00 | 0.00 | 41 | |
| 20260508171003 | 64 | 261 | 2.0 | 6.0 | 0.00 | 0.00 | 0.00 | 39 | |
| 20260508170500 | 64 | 206 | 3.0 | 3.0 | 0.00 | 0.00 | 0.00 | 40 | |
| 20260508165957 | 64 | 296 | 1.0 | 5.0 | 0.00 | 0.00 | 0.00 | 42 | |
| 20260508165455 | 64 | 256 | 1.0 | 3.0 | 0.00 | 0.00 | 0.00 | 42 | |
| 20260508164950 | 63 | 234 | 1.0 | 2.0 | 0.00 | 0.00 | 0.00 | 42 | |
| 20260508164448 | 63 | 310 | 3.0 | 5.0 | 0.00 | 0.00 | 0.00 | 39 | |
| 20260508163944 | 63 | 213 | 0.0 | 2.0 | 0.00 | 0.00 | 0.00 | 41 | |
| 20260508163442 | 62 | 261 | 1.0 | 2.0 | 0.00 | 0.00 | 0.00 | 45 | |
| 20260508162938 | 60 | 288 | 2.0 | 5.0 | 0.00 | 0.00 | 0.00 | 44 | |
| 20260508162436 | 61 | 250 | 1.0 | 3.0 | 0.00 | 0.00 | 0.00 | 42 | |
| 20260508161932 | 61 | 312 | 3.0 | 3.0 | 0.00 | 0.00 | 0.00 | 43 | |
| 20260508161429 | 64 | 174 | 2.0 | 5.0 | 0.00 | 0.00 | 0.00 | 41 | |
| 20260508160927 | 63 | 281 | 1.0 | 2.0 | 0.00 | 0.00 | 0.00 | 43 | |
| 20260508160426 | 62 | 244 | 2.0 | 3.0 | 0.00 | 0.00 | 0.00 | 46 | |
| 20260508155921 | 62 | 166 | 2.0 | 3.0 | 0.00 | 0.00 | 0.00 | 43 | |
| 20260508155419 | 61 | 236 | 0.0 | 2.0 | 0.00 | 0.00 | 0.00 | 44 | |
| 20260508154915 | 61 | 33 | 2.0 | 2.0 | 0.00 | 0.00 | 0.00 | 45 | |
| 20260508154413 | 61 | 265 | 2.0 | 3.0 | 0.00 | 0.00 | 0.00 | 44 | |
| 20260508153909 | 60 | 284 | 1.0 | 1.0 | 0.00 | 0.00 | 0.00 | 45 | |
| 20260508153407 | 61 | 225 | 0.0 | 1.0 | 0.00 | 0.00 | 0.00 | 43 | |
| 20260508152903 | 61 | 303 | 0.0 | 2.0 | 0.00 | 0.00 | 0.00 | 45 | |
| 20260508152359 | 60 | 244 | 0.0 | 3.0 | 0.00 | 0.00 | 0.00 | 46 | |
| 20260508151856 | 58 | 175 | 0.0 | 3.0 | 0.00 | 0.00 | 0.00 | 48 | |
| 20260508151353 | 59 | 240 | 1.0 | 2.0 | 0.00 | 0.00 | 0.00 | 46 | |
| 20260508150849 | 60 | 237 | 0.0 | 2.0 | 0.00 | 0.00 | 0.00 | 49 | |
| 20260508150346 | 58 | 248 | 1.0 | 2.0 | 0.00 | 0.00 | 0.00 | 47 | |
| 20260508145842 | 59 | 53 | 1.0 | 1.0 | 0.00 | 0.00 | 0.00 | 47 | |
| 20260508145338 | 57 | 254 | 1.0 | 2.0 | 0.00 | 0.00 | 0.00 | 48 | |
| 20260508144835 | 59 | 313 | 3.0 | 5.0 | 0.00 | 0.00 | 0.00 | 49 | |
| 20260508144333 | 60 | 348 | 1.0 | 2.0 | 0.00 | 0.00 | 0.00 | 47 | |
| 20260508143830 | 59 | 185 | 0.0 | 1.0 | 0.00 | 0.00 | 0.00 | 47 | |
| 20260508143327 | 57 | 249 | 1.0 | 2.0 | 0.00 | 0.00 | 0.00 | 51 | |
| 20260508142824 | 59 | 250 | 2.0 | 3.0 | 0.00 | 0.00 | 0.00 | 53 | |
| 20260508142321 | 58 | 322 | 3.0 | 3.0 | 0.00 | 0.00 | 0.00 | 55 | |
| 20260508141817 | 57 | 293 | 1.0 | 2.0 | 0.00 | 0.00 | 0.00 | 54 | |
| 20260508141314 | 56 | 318 | 3.0 | 3.0 | 0.00 | 0.00 | 0.00 | 58 | |
| 20260508140812 | 57 | 308 | 0.0 | 1.0 | 0.00 | 0.00 | 0.00 | 58 | |
| 20260508140309 | 55 | 302 | 1.0 | 3.0 | 0.00 | 0.00 | 0.00 | 60 | |
| 20260508135804 | 56 | 243 | 1.0 | 1.0 | 0.00 | 0.00 | 0.00 | 60 | |
| 20260508135301 | 57 | 246 | 2.0 | 2.0 | 0.00 | 0.00 | 0.00 | 59 | |
| 20260508134756 | 56 | 214 | 1.0 | 2.0 | 0.00 | 0.00 | 0.00 | 60 | |
| 20260508134254 | 57 | 233 | 0.0 | 1.0 | 0.00 | 0.00 | 0.00 | 59 | |
| 20260508133750 | 56 | 238 | 1.0 | 2.0 | 0.00 | 0.00 | 0.00 | 62 | |
| 20260508133248 | 55 | 245 | 0.0 | 2.0 | 0.00 | 0.00 | 0.00 | 62 | |
| 20260508132746 | 55 | 254 | 1.0 | 1.0 | 0.00 | 0.00 | 0.00 | 64 | |
| 20260508132243 | 54 | 245 | 0.0 | 2.0 | 0.00 | 0.00 | 0.00 | 66 |